#timestamp,LO_Frequency,Hit,StdDev 
1699819215.7,286046993.1,N
1699819235.5,286046991.7,N
1699819255.3,286046992.1,N
1699819275.2,286046993.6,N
1699819295.0,286046991.9,N
1699819295.9,286046991.9,N
1699819315.8,286046999.5,N
1699819335.6,286046996.0,N
1699819355.4,286046997.4,N
1699819375.3,286046995.0,N
1699819395.1,286046997.3,N
1699819415.8,286046999.5,N
1699819435.7,286046996.8,N
1699819455.5,286046995.9,N
1699819475.4,286046995.6,N
1699819495.2,286046997.4,N
1699819515.0,286046998.7,N
1699819515.9,286046998.7,N
1699819535.8,286047004.0,N
1699819555.6,286047002.4,N
1699819575.4,286046998.6,N
1699819595.3,286046998.2,N
1699819615.1,286047001.1,N
1699819635.9,286046999.5,N
1699819655.7,286046995.4,N
1699819675.5,286046994.6,N
1699819695.4,286046993.6,N
1699819715.2,286046993.2,N
1699819735.0,286046992.4,N
1699819735.9,286046992.4,N
1699819755.8,286046996.3,N
1699819775.6,286046994.4,N
1699819795.5,286046996.9,N
1699819815.3,286047001.1,N
1699819835.1,286047002.5,N
1699819855.9,286047004.4,N
1699819875.7,286046998.6,N
1699819895.6,286046999.4,N
1699819915.4,286046998.8,N
1699819935.2,286046996.6,N
1699819955.1,286046998.4,N
1699819956.0,286046998.4,N
1699819975.8,286047001.5,N
1699819995.6,286047000.3,N
1699820015.5,286047002.2,N
1699820035.3,286046998.1,N
1699820055.2,286047003.8,N
1699820075.9,286047004.0,N
1699820095.7,286047000.5,N
1699820115.6,286047003.4,N
1699820135.4,286047001.6,N
1699820155.2,286046999.9,N
1699820175.1,286047003.9,N
1699820176.0,286047003.9,N
1699820195.8,286047001.8,N
1699820215.7,286047003.5,N
1699820235.5,286047003.7,N
1699820255.3,286047003.5,N
1699820275.2,286047001.6,N
1699820295.0,286047005.1,N
1699820295.9,286047005.1,N
1699820315.7,286047006.9,N
1699820335.6,286047006.2,N
1699820355.4,286047008.1,Y
1699820375.3,286047009.2,P
1699820395.1,286047003.4,N
1699820415.8,286047001.4,N
1699820435.7,286047002.4,N
1699820455.5,286046998.7,N
1699820475.3,286046997.0,N
1699820495.2,286046999.1,N
1699820515.0,286047001.0,N
1699820515.9,286047001.0,N
1699820535.8,286047002.7,N
1699820555.6,286046999.1,N
1699820575.4,286046997.3,N
1699820595.3,286046998.6,N
1699820615.1,286046993.3,N
1699820635.8,286046995.0,N
1699820655.7,286046991.7,N
1699820675.5,286046993.7,N
1699820695.4,286046994.5,N
1699820715.2,286046996.3,N
1699820735.0,286046993.8,N
1699820735.9,286046993.8,N
1699820755.8,286046995.3,N
1699820775.6,286046994.0,N
1699820795.4,286046993.3,N
1699820815.3,286046997.4,N
1699820835.1,286046993.8,N
1699820855.9,286046992.4,N
1699820875.7,286046995.2,N
1699820895.5,286047000.1,N
1699820915.4,286047000.5,N
1699820935.2,286046999.3,N
1699820955.0,286046997.4,N
1699820955.9,286046997.4,N
1699820975.8,286046999.4,N
1699820995.6,286046999.4,N
1699821015.5,286046997.7,N
1699821035.3,286046996.1,N
1699821055.1,286046995.9,N
1699821075.9,286046994.1,N
1699821095.7,286046996.1,N
1699821115.6,286047001.2,N
1699821135.4,286047001.3,N
1699821155.2,286047006.7,N
1699821175.1,286047005.0,N
1699821176.0,286047005.0,N
1699821195.8,286047004.3,N
1699821215.6,286047001.3,N
1699821235.5,286047004.6,N
1699821255.3,286047008.5,N
1699821275.2,286047006.5,N
1699821295.9,286047005.2,N
1699821315.7,286047006.6,N
1699821335.6,286047003.5,N
1699821355.4,286047004.2,N
1699821375.2,286047001.7,N
1699821395.1,286047005.1,N
1699821396.0,286047005.1,N
1699821415.8,286047005.6,N
1699821435.7,286046999.7,N
1699821455.5,286046998.4,N
1699821475.3,286046998.1,N
1699821495.2,286046997.1,N
1699821515.0,286046996.5,N
1699821515.9,286046996.5,N
1699821535.8,286046997.1,N
1699821555.6,286046997.2,N
1699821575.4,286046995.7,N
1699821595.3,286046995.3,N
1699821615.1,286046995.0,N
1699821635.8,286046997.6,N
1699821655.7,286046996.8,N
1699821675.5,286046995.8,N
1699821695.3,286046996.4,N
1699821715.2,286046997.9,N
1699821735.0,286046996.1,N
1699821735.9,286046996.1,N
1699821755.8,286046993.8,N
1699821775.6,286046995.3,N
1699821795.4,286046994.8,N
1699821815.3,286046995.1,N
1699821835.1,286046993.5,N
1699821855.9,286046992.8,N
1699821875.7,286046992.3,N
1699821895.5,286046992.5,N
1699821915.4,286046999.2,N
1699821935.2,286046999.7,N
1699821955.0,286047000.0,N
1699821955.9,286047000.0,N
1699821975.8,286047003.5,N
1699821995.6,286047003.3,N
1699822015.5,286047005.2,N
1699822035.3,286047007.5,N
1699822055.1,286047006.8,N
1699822075.9,286047006.1,N
1699822095.7,286047005.1,N
1699822115.6,286047005.9,N
1699822135.4,286047004.9,N
1699822155.2,286047003.3,N
1699822175.1,286047005.5,N
1699822176.0,286047005.5,N
1699822195.8,286047000.3,N
1699822215.6,286046998.0,N
1699822235.5,286046996.4,N
1699822255.3,286046998.0,N
1699822275.2,286046997.6,N
1699822295.9,286046993.7,N
1699822315.7,286046991.9,N
1699822335.6,286046992.3,N
1699822355.4,286046991.9,N
1699822375.2,286046993.1,N
1699822395.1,286046991.9,N
1699822396.0,286046991.9,N
1699822415.8,286046992.6,N
1699822435.7,286046992.1,N
1699822455.5,286046993.8,N
1699822475.3,286046992.9,N
1699822495.2,286046990.1,N
1699822515.9,286046989.0,N
1699822535.7,286046992.2,N
1699822555.6,286046990.5,N
1699822575.4,286046993.0,N
1699822595.3,286046992.7,N
1699822615.1,286046993.9,N
1699822616.0,286046993.9,N
1699822635.8,286046992.2,N
1699822655.7,286046994.5,N
1699822675.5,286046995.2,N
1699822695.3,286046995.0,N
1699822715.2,286046996.9,N
1699822735.0,286046996.1,N
1699822735.9,286046996.1,N
1699822755.8,286046995.3,N
1699822775.6,286046993.6,N
1699822795.4,286046994.6,N
